User: anonymous   Login
Location: Unspecified
(0.0000°N, 0.0000°E)
Time: 02:58:10
(UTC+00:00)
Language:

APRIZESAT 5 - Orbit

View from above orbital plane
View from above orbital plane
View from above satellite
View from above satellite

Ground track
Ground track

The orbit is defined by the following mean orbital elements,

1 37792U          26145.37456659 +.00000000 +00000-0 +12475-3 0 00006
2 37792  98.2450  77.7704 0053653  76.5121 284.2062 14.81017361    00
Epoch (UTC): 25 May 2026 08:59:22
Eccentricity: 0.0053653
inclination: 98.2450°
perigee height: 589 km
apogee height: 664 km
right ascension of ascending node: 77.7704°
argument of perigee: 76.5121°
revolutions per day: 14.81017361
mean anomaly at epoch: 284.2062°

The dashed part of the orbit path shows where the satellite is in the earth's shadow,  

DLR